Location: Unspecified
(0.0000°N, 0.0000°E)
Time: 00:14:48
(UTC+00:00)

STARLINK-1265 - Pass Details

Date: 25 May 2026
Orbit: 448 x 454 km, 53.2° (Epoch: 10 June)

Event Time Altitude Azimuth Distance (km) Brightness Sun altitude
Exits shadow 04:40:25 10° 321° (NW) 1,603 5.8 -17.8°
Reaches altitude 10° 04:40:27 10° 321° (NW) 1,592 5.8 -17.8°
Maximum altitude 04:44:01 73° 237° (WSW) 481 3.1 -17.0°
Drops below altitude 10° 04:47:37 10° 151° (SSE) 1,604 6.1 -16.2°
Sets 04:49:47 0° 149° (SSE) 2,482 7.1 -15.7°
